Regional Weather Roundup
Issued by NWS

Home | Current Version | Previous Version | Graphics & Text | Print | Product List | Glossary On
Versions: 1 2 3 4 5 6 7 8 9 10 11 12 13 14 15 16 17 18 19 20 21 22 23 24 25 26 27 28 29 30 31 32 33 34 35 36 37 38 39 40 41 42 43 44 45 46 47 48 49 50
000
ASUS43 KBIS 262002
RWRND

NORTH DAKOTA REGIONAL WEATHER ROUNDUP
NATIONAL WEATHER SERVICE BISMARCK ND
300 PM CDT WED JUL 26 2017

NOTE: "FAIR" INDICATES FEW OR NO CLOUDS BELOW 12,000 FEET WITH NO
SIGNIFICANT WEATHER AND/OR OBSTRUCTIONS TO VISIBILITY.


NDZ001>003-009>011-017-262100-
NORTHWEST NORTH DAKOTA

CITY           SKY/WX    TMP DP  RH WIND       PRES   REMARKS
WILLISTON      SUNNY     89  46  22 E5        30.11F
MINOT          MOSUNNY   85  53  33 N12       30.13S
MINOT AFB      SUNNY     81  53  37 N6        30.12S
$$

NDZ018>021-031>035-040>046-262100-
SOUTHWEST NORTH DAKOTA

CITY           SKY/WX    TMP DP  RH WIND       PRES   REMARKS
BISMARCK       SUNNY     87  53  31 N12G20    30.11F
DICKINSON      SUNNY     89  50  26 VRB6      30.12F
GARRISON         N/A     83  51  33 N9G20     30.13S
HETTINGER ARPT SUNNY     89  48  24 N8        30.15F
$$

NDZ004>008-012>016-024-026-027-054-262100-
NORTHEAST NORTH DAKOTA

CITY           SKY/WX    TMP DP  RH WIND       PRES   REMARKS
GRAND FORKS    MOSUNNY   82  62  50 N10       30.05S
GRND FRKS AFB  MOSUNNY   80  59  48 N8        30.07S
DEVILS LAKE    MOSUNNY   78  57  48 N10       30.12S
$$

NDZ022-023-025-028>030-036>039-047>053-262100-
SOUTHEAST NORTH DAKOTA

CITY           SKY/WX    TMP DP  RH WIND       PRES   REMARKS
FARGO          MOSUNNY   82  61  48 N12       30.05S
JAMESTOWN      MOSUNNY   83  56  39 N12G20    30.09F
$$





USA.gov is the U.S. government's official web portal to all federal, state and local government web resources and services.